This is the latest recevied weather packets stored in our database for station/object JA7ZQY-10. If no packets are shown the sender has not sent any weather packets the latest 10 day(s).
| Time | Temp. | Humidity | Pressure | Rain* | Wind** | Luminosity | Snow |
|---|---|---|---|---|---|---|---|
| 1778244891 | 15° C | 83% | 1003.4 hPa | 0 mm | - | - | - |
| 1778244290 | 15° C | 85% | 1002.9 hPa | 0 mm | - | - | - |
| 1778243690 | 15° C | 85% | 1003.4 hPa | 0 mm | - | - | - |
| 1778243091 | 14.44° C | 84% | 1003.4 hPa | 0 mm | - | - | - |
| 1778242491 | 13.89° C | 83% | 1003.4 hPa | 0 mm | - | - | - |
| 1778241890 | 13.89° C | 82% | 1003.3 hPa | 0 mm | - | - | - |
| 1778241291 | 13.89° C | 81% | 1003 hPa | 0.25 mm | - | - | - |
| 1778240691 | 14.44° C | 80% | 1003.2 hPa | 0.25 mm | - | - | - |
| 1778240092 | 15.56° C | 80% | 1003.5 hPa | 0.25 mm | - | - | - |
| 1778239490 | 16.67° C | 81% | 1003.1 hPa | 0.25 mm | - | - | - |
| 1778238890 | 16.67° C | 81% | 1002.7 hPa | 0.25 mm | - | - | - |
| 1778238292 | 16.67° C | 80% | 1002.6 hPa | 0.25 mm | - | - | - |
| 1778237691 | 16.67° C | 77% | 1002.8 hPa | 0 mm | - | - | - |
| 1778237089 | 17.22° C | 75% | 1003 hPa | 0 mm | - | - | - |
| 1778236489 | 17.22° C | 74% | 1002.8 hPa | 0 mm | - | - | - |
| 1778235891 | 17.78° C | 71% | 1003.1 hPa | 0 mm | - | - | - |
| 1778235289 | 17.78° C | 70% | 1002.6 hPa | 0 mm | - | - | - |
| 1778234689 | 17.78° C | 70% | 1002.9 hPa | 0 mm | - | - | - |
| 1778234090 | 17.78° C | 70% | 1002.9 hPa | 0 mm | - | - | - |
| 1778233489 | 17.78° C | 69% | 1002.8 hPa | 0 mm | - | - | - |
| 1778232890 | 17.78° C | 68% | 1003.1 hPa | 0 mm | - | - | - |
| 1778232291 | 17.78° C | 68% | 1003 hPa | 0 mm | - | - | - |
| 1778231690 | 17.78° C | 67% | 1002.8 hPa | 0 mm | - | - | - |
| 1778231090 | 17.78° C | 66% | 1002.7 hPa | 0 mm | - | - | - |
| 1778230490 | 18.33° C | 65% | 1002.6 hPa | 0 mm | - | - | - |
* Rain latest hour (hover to see other rain measurements)
** Current wind speed in m/s (hover to see current wind gust speed)